Flag for South Africa Weather past 2 weeks in Stellenbosch, South Africa

Now
73 °F

Sunny.


Feels Like: 77 °F
Forecast: 41 / 79 °F
Wind: 2 mph from North

Location: Cape Town International Airport

Current Time: Apr 18, 2015 at 11:54:13 AM

Latest Report: Apr 18, 2015 at 11:00 AM


Visibility: 10 mi

Pressure: 30.18 "Hg

Humidity: 41%

Dew point: 48 °F

Location of StellenboschLocation

Historic Weather in Stellenbosch — Graph

°F

Stellenbosch temperature yesterday

Maximum temperature yesterday: 77 °F (at 3:00 PM)
Minimum temperature yesterday: 57 °F (at 3:00 AM)
Average temperature yesterday: 65 °F

Past Weeks' High & Low Weather Summary

 TemperatureHumidityPressure
High88 °F (Apr 9, 1:00 PM)100% (Apr 12, 8:00 AM)30.36 "Hg (Apr 12, 8:00 AM)
Low46 °F (Apr 16, 6:00 AM)27% (Apr 17, 1:00 PM)29.86 "Hg (Apr 10, 4:00 AM)
Average65 °F66%30.09 "Hg
* Reported Apr 3 10:00 AM — Apr 18 10:00 AM, Stellenbosch, Weather by CustomWeather, © 2015

Note: Actual official high and low records may vary slightly from our data, if they occured in-between our weather recording intervals... More about our weather records

Advertising

Stellenbosch weather history for previous 24 hours

 ConditionsComfort  
Time TempWeatherWind HumidityBarometerVisibility
10:00 AM
Sat, Apr 18
68 °FSunny.2 mph53%30.21 "Hg10 mi
9:00 AM63 °FSunny.2 mph64%30.21 "Hg10 mi
8:00 AM55 °FSunny.2 mph77%30.18 "Hg10 mi
7:00 AM50 °FSunny.1 mph94%30.18 "Hg10 mi
6:00 AM54 °FClear.2 mph82%30.18 "Hg10 mi
5:00 AM54 °FClear.3 mph82%30.18 "Hg10 mi
4:00 AM57 °FPassing clouds.3 mph72%30.21 "HgN/A
3:00 AM59 °FClear.7 mph72%30.21 "Hg10 mi
2:00 AM59 °FClear.6 mph68%30.24 "Hg10 mi
1:00 AM59 °FClear.7 mph72%30.24 "Hg10 mi
12:00 AM59 °FPassing clouds.3 mph72%30.24 "HgN/A
11:00 PM
Fri, Apr 17
59 °FClear.1 mph72%30.27 "Hg10 mi
10:00 PM61 °FPassing clouds.6 mph63%30.27 "HgN/A
9:00 PM63 °FClear.12 mph64%30.27 "Hg10 mi
8:00 PM64 °FClear.14 mph56%30.27 "Hg10 mi
5:00 PM75 °FPassing clouds.8 mph34%30.24 "HgN/A
4:00 PM77 °FPassing clouds.16 mph32%30.27 "HgN/A
3:00 PM77 °FPassing clouds.5 mph28%30.27 "HgN/A
2:00 PM75 °FSunny.5 mph29%30.27 "Hg10 mi
1:00 PM75 °FSunny.3 mph27%30.30 "Hg10 mi
12:00 PM73 °FSunny.6 mph31%30.33 "Hg10 mi
11:00 AM72 °FSunny.2 mph33%30.33 "Hg10 mi
Weather by CustomWeather, © 2015

See weather overviewHow to use our weather pages